Torna al catalogo

STARLINK-37374

AttivoComunicazioniVLEO
NORAD 69153·PAYLOAD·🇺🇸 United States

Lanciato May 21, 2026 da Cape Canaveral Space Force Station

Loading…

Prossimi Passaggi (prossime 24 ore)

TLE

AggiornatoSource: CelesTrak SupGP

Epoca: Sep 14, 2026, 22:57 UTC

1 69153C 26111F   26257.95673611  .00032217  00000+0  95191-3 0  2574
2 69153  53.1579  91.8911 0001212  80.2050 310.6311 15.34372354    19

Traccia STARLINK-37374 in tempo reale con AllMySat

Download on the App Store